station,date_time,water_elev
365745089090401,05/02/2011 22:46,314.35
365745089090401,05/02/2011 22:47,314.41
365745089090401,05/02/2011 22:48,314.48
365745089090401,05/02/2011 22:49,314.53
365745089090401,05/02/2011 22:50,314.59
365745089090401,05/02/2011 22:51,314.65
365745089090401,05/02/2011 22:52,314.67
365745089090401,05/02/2011 22:53,314.7
365745089090401,05/02/2011 22:54,314.75
365745089090401,05/02/2011 22:55,314.89
365745089090401,05/02/2011 22:56,315.04
365745089090401,05/02/2011 22:57,315.16
365745089090401,05/02/2011 22:58,315.35
365745089090401,05/02/2011 22:59,315.58
365745089090401,05/02/2011 23:00,315.72
365745089090401,05/02/2011 23:01,315.85
365745089090401,05/02/2011 23:02,315.98
365745089090401,05/02/2011 23:03,316.1
365745089090401,05/02/2011 23:04,316.24
365745089090401,05/02/2011 23:05,316.43
365745089090401,05/02/2011 23:06,316.59
365745089090401,05/02/2011 23:07,316.74
365745089090401,05/02/2011 23:08,316.96
365745089090401,05/02/2011 23:09,317.16
365745089090401,05/02/2011 23:10,317.35
365745089090401,05/02/2011 23:11,317.51
365745089090401,05/02/2011 23:12,317.63
365745089090401,05/02/2011 23:13,317.8
365745089090401,05/02/2011 23:14,317.96
365745089090401,05/02/2011 23:15,318.03
365745089090401,05/02/2011 23:16,318.29
365745089090401,05/02/2011 23:17,318.37
365745089090401,05/02/2011 23:18,318.44
365745089090401,05/02/2011 23:19,318.52
365745089090401,05/02/2011 23:20,318.59
365745089090401,05/02/2011 23:21,318.66
365745089090401,05/02/2011 23:22,318.76
365745089090401,05/02/2011 23:23,318.82
365745089090401,05/02/2011 23:24,318.91
365745089090401,05/02/2011 23:25,319.02
365745089090401,05/02/2011 23:26,319.09
365745089090401,05/02/2011 23:27,319.16
365745089090401,05/02/2011 23:28,319.22
365745089090401,05/02/2011 23:29,319.27
365745089090401,05/02/2011 23:30,319.34
365745089090401,05/02/2011 23:31,319.39
365745089090401,05/02/2011 23:32,319.44
365745089090401,05/02/2011 23:33,319.49
365745089090401,05/02/2011 23:34,319.54
365745089090401,05/02/2011 23:35,319.6
365745089090401,05/02/2011 23:36,319.66
365745089090401,05/02/2011 23:37,319.71
365745089090401,05/02/2011 23:38,319.76
365745089090401,05/02/2011 23:39,319.84
365745089090401,05/02/2011 23:40,319.88
365745089090401,05/02/2011 23:41,319.94
365745089090401,05/02/2011 23:42,319.99
365745089090401,05/02/2011 23:43,320.03
365745089090401,05/02/2011 23:44,320.09
365745089090401,05/02/2011 23:45,320.14
365745089090401,05/02/2011 23:46,320.18
365745089090401,05/02/2011 23:47,320.24
365745089090401,05/02/2011 23:48,320.28
365745089090401,05/02/2011 23:49,320.32
365745089090401,05/02/2011 23:50,320.38
365745089090401,05/02/2011 23:51,320.4
365745089090401,05/02/2011 23:52,320.46
365745089090401,05/02/2011 23:53,320.5
365745089090401,05/02/2011 23:54,320.54
365745089090401,05/02/2011 23:55,320.6
365745089090401,05/02/2011 23:56,320.62
365745089090401,05/02/2011 23:57,320.7
365745089090401,05/02/2011 23:58,320.71
365745089090401,05/02/2011 23:59,320.77
365745089090401,05/03/2011 00:00,320.81
365745089090401,05/03/2011 00:01,320.85
365745089090401,05/03/2011 00:02,320.87
365745089090401,05/03/2011 00:03,320.95
365745089090401,05/03/2011 00:04,320.98
365745089090401,05/03/2011 00:05,321.01
365745089090401,05/03/2011 00:06,321.04
365745089090401,05/03/2011 00:07,321.09
365745089090401,05/03/2011 00:08,321.12
365745089090401,05/03/2011 00:09,321.17
365745089090401,05/03/2011 00:10,321.2
365745089090401,05/03/2011 00:11,321.23
365745089090401,05/03/2011 00:12,321.28
365745089090401,05/03/2011 00:13,321.31
365745089090401,05/03/2011 00:14,321.34
365745089090401,05/03/2011 00:15,321.38
365745089090401,05/03/2011 00:16,321.41
365745089090401,05/03/2011 00:17,321.46
365745089090401,05/03/2011 00:18,321.49
365745089090401,05/03/2011 00:19,321.53
365745089090401,05/03/2011 00:20,321.55
365745089090401,05/03/2011 00:21,321.58
365745089090401,05/03/2011 00:22,321.62
365745089090401,05/03/2011 00:23,321.67
365745089090401,05/03/2011 00:24,321.68
365745089090401,05/03/2011 00:25,321.73
365745089090401,05/03/2011 00:26,321.74
365745089090401,05/03/2011 00:27,321.76
365745089090401,05/03/2011 00:28,321.8
365745089090401,05/03/2011 00:29,321.84
365745089090401,05/03/2011 00:30,321.85
365745089090401,05/03/2011 00:31,321.89
365745089090401,05/03/2011 00:32,321.92
365745089090401,05/03/2011 00:33,321.94
365745089090401,05/03/2011 00:34,321.99
365745089090401,05/03/2011 00:35,321.99
365745089090401,05/03/2011 00:36,322.03
365745089090401,05/03/2011 00:37,322.05
365745089090401,05/03/2011 00:38,322.07
365745089090401,05/03/2011 00:39,322.1
365745089090401,05/03/2011 00:40,322.13
365745089090401,05/03/2011 00:41,322.14
365745089090401,05/03/2011 00:42,322.18
365745089090401,05/03/2011 00:43,322.21
365745089090401,05/03/2011 00:44,322.23
365745089090401,05/03/2011 00:45,322.24
365745089090401,05/03/2011 00:46,322.27
365745089090401,05/03/2011 00:47,322.3
365745089090401,05/03/2011 00:48,322.31
365745089090401,05/03/2011 00:49,322.34
365745089090401,05/03/2011 00:50,322.36
365745089090401,05/03/2011 00:51,322.38
365745089090401,05/03/2011 00:52,322.4
365745089090401,05/03/2011 00:53,322.41
365745089090401,05/03/2011 00:54,322.44
365745089090401,05/03/2011 00:55,322.46
365745089090401,05/03/2011 00:56,322.47
365745089090401,05/03/2011 00:57,322.49
365745089090401,05/03/2011 00:58,322.5
365745089090401,05/03/2011 00:59,322.53
365745089090401,05/03/2011 01:00,322.54
365745089090401,05/03/2011 01:01,322.55
365745089090401,05/03/2011 01:02,322.58
365745089090401,05/03/2011 01:03,322.6
365745089090401,05/03/2011 01:04,322.61
365745089090401,05/03/2011 01:05,322.63
365745089090401,05/03/2011 01:06,322.64
365745089090401,05/03/2011 01:07,322.65
365745089090401,05/03/2011 01:08,322.68
365745089090401,05/03/2011 01:09,322.69
365745089090401,05/03/2011 01:10,322.71
365745089090401,05/03/2011 01:11,322.73
365745089090401,05/03/2011 01:12,322.73
365745089090401,05/03/2011 01:13,322.73
365745089090401,05/03/2011 01:14,322.75
365745089090401,05/03/2011 01:15,322.75
365745089090401,05/03/2011 01:16,322.79
365745089090401,05/03/2011 01:17,322.8
365745089090401,05/03/2011 01:18,322.8
365745089090401,05/03/2011 01:19,322.81
365745089090401,05/03/2011 01:20,322.81
365745089090401,05/03/2011 01:21,322.83
365745089090401,05/03/2011 01:22,322.86
365745089090401,05/03/2011 01:23,322.85
365745089090401,05/03/2011 01:24,322.87
365745089090401,05/03/2011 01:25,322.87
365745089090401,05/03/2011 01:26,322.88
365745089090401,05/03/2011 01:27,322.9
365745089090401,05/03/2011 01:28,322.9
365745089090401,05/03/2011 01:29,322.92
365745089090401,05/03/2011 01:30,322.92
365745089090401,05/03/2011 01:31,322.94
365745089090401,05/03/2011 01:32,322.94
365745089090401,05/03/2011 01:33,322.94
365745089090401,05/03/2011 01:34,322.96
365745089090401,05/03/2011 01:35,322.98
365745089090401,05/03/2011 01:36,322.98
365745089090401,05/03/2011 01:37,322.98
365745089090401,05/03/2011 01:38,322.99
365745089090401,05/03/2011 01:39,323.01
365745089090401,05/03/2011 01:40,322.99
365745089090401,05/03/2011 01:41,322.99
365745089090401,05/03/2011 01:42,323.03
365745089090401,05/03/2011 01:43,323.03
365745089090401,05/03/2011 01:44,323.03
365745089090401,05/03/2011 01:45,323.02
365745089090401,05/03/2011 01:46,323.04
365745089090401,05/03/2011 01:47,323.04
365745089090401,05/03/2011 01:48,323.04
365745089090401,05/03/2011 01:49,323.05
365745089090401,05/03/2011 01:50,323.06
365745089090401,05/03/2011 01:51,323.06
365745089090401,05/03/2011 01:52,323.07
365745089090401,05/03/2011 01:53,323.09
365745089090401,05/03/2011 01:54,323.09
365745089090401,05/03/2011 01:55,323.09
365745089090401,05/03/2011 01:56,323.1
365745089090401,05/03/2011 01:57,323.12
365745089090401,05/03/2011 01:58,323.12
365745089090401,05/03/2011 01:59,323.12
365745089090401,05/03/2011 02:00,323.13
365745089090401,05/03/2011 02:01,323.15
365745089090401,05/03/2011 02:02,323.15
365745089090401,05/03/2011 02:03,323.16
365745089090401,05/03/2011 02:04,323.16
365745089090401,05/03/2011 02:05,323.17
365745089090401,05/03/2011 02:06,323.18
365745089090401,05/03/2011 02:07,323.2
365745089090401,05/03/2011 02:08,323.19
365745089090401,05/03/2011 02:09,323.19
365745089090401,05/03/2011 02:10,323.21
365745089090401,05/03/2011 02:11,323.2
365745089090401,05/03/2011 02:12,323.22
365745089090401,05/03/2011 02:13,323.23
365745089090401,05/03/2011 02:14,323.22
365745089090401,05/03/2011 02:15,323.23
365745089090401,05/03/2011 02:16,323.24
365745089090401,05/03/2011 02:17,323.26
365745089090401,05/03/2011 02:18,323.26
365745089090401,05/03/2011 02:19,323.26
365745089090401,05/03/2011 02:20,323.27
365745089090401,05/03/2011 02:21,323.28
365745089090401,05/03/2011 02:22,323.28
365745089090401,05/03/2011 02:23,323.29
365745089090401,05/03/2011 02:24,323.3
365745089090401,05/03/2011 02:25,323.3
365745089090401,05/03/2011 02:26,323.3
365745089090401,05/03/2011 02:27,323.3
365745089090401,05/03/2011 02:28,323.31
365745089090401,05/03/2011 02:29,323.31
365745089090401,05/03/2011 02:30,323.32
365745089090401,05/03/2011 02:31,323.32
365745089090401,05/03/2011 02:32,323.33
365745089090401,05/03/2011 02:33,323.34
365745089090401,05/03/2011 02:34,323.35
365745089090401,05/03/2011 02:35,323.35
365745089090401,05/03/2011 02:36,323.35
365745089090401,05/03/2011 02:37,323.36
365745089090401,05/03/2011 02:38,323.35
365745089090401,05/03/2011 02:39,323.35
365745089090401,05/03/2011 02:40,323.37
365745089090401,05/03/2011 02:41,323.37
365745089090401,05/03/2011 02:42,323.39
365745089090401,05/03/2011 02:43,323.39
365745089090401,05/03/2011 02:44,323.39
365745089090401,05/03/2011 02:45,323.4
365745089090401,05/03/2011 02:46,323.4
365745089090401,05/03/2011 02:47,323.41
365745089090401,05/03/2011 02:48,323.4
365745089090401,05/03/2011 02:49,323.42
365745089090401,05/03/2011 02:50,323.43
365745089090401,05/03/2011 02:51,323.42
365745089090401,05/03/2011 02:52,323.44
365745089090401,05/03/2011 02:53,323.45
365745089090401,05/03/2011 02:54,323.47
365745089090401,05/03/2011 02:55,323.47
365745089090401,05/03/2011 02:56,323.47
365745089090401,05/03/2011 02:57,323.48
365745089090401,05/03/2011 02:58,323.48
365745089090401,05/03/2011 02:59,323.48
365745089090401,05/03/2011 03:00,323.48
365745089090401,05/03/2011 03:01,323.5
365745089090401,05/03/2011 03:02,323.5
365745089090401,05/03/2011 03:03,323.5
365745089090401,05/03/2011 03:04,323.52
365745089090401,05/03/2011 03:05,323.52
365745089090401,05/03/2011 03:06,323.53
365745089090401,05/03/2011 03:07,323.53
365745089090401,05/03/2011 03:08,323.54
365745089090401,05/03/2011 03:09,323.53
365745089090401,05/03/2011 03:10,323.54
365745089090401,05/03/2011 03:11,323.54
365745089090401,05/03/2011 03:12,323.56
365745089090401,05/03/2011 03:13,323.57
365745089090401,05/03/2011 03:14,323.57
365745089090401,05/03/2011 03:15,323.57
365745089090401,05/03/2011 03:16,323.58
365745089090401,05/03/2011 03:17,323.58
365745089090401,05/03/2011 03:18,323.58
365745089090401,05/03/2011 03:19,323.6
365745089090401,05/03/2011 03:20,323.61
365745089090401,05/03/2011 03:21,323.61
365745089090401,05/03/2011 03:22,323.61
365745089090401,05/03/2011 03:23,323.63
365745089090401,05/03/2011 03:24,323.62
365745089090401,05/03/2011 03:25,323.64
365745089090401,05/03/2011 03:26,323.64
365745089090401,05/03/2011 03:27,323.64
365745089090401,05/03/2011 03:28,323.65
365745089090401,05/03/2011 03:29,323.66
365745089090401,05/03/2011 03:30,323.66
365745089090401,05/03/2011 03:31,323.66
365745089090401,05/03/2011 03:32,323.68
365745089090401,05/03/2011 03:33,323.68
365745089090401,05/03/2011 03:34,323.68
365745089090401,05/03/2011 03:35,323.69
365745089090401,05/03/2011 03:36,323.69
365745089090401,05/03/2011 03:37,323.7
365745089090401,05/03/2011 03:38,323.71
365745089090401,05/03/2011 03:39,323.71
365745089090401,05/03/2011 03:40,323.71
365745089090401,05/03/2011 03:41,323.72
365745089090401,05/03/2011 03:42,323.72
365745089090401,05/03/2011 03:43,323.74
365745089090401,05/03/2011 03:44,323.74
365745089090401,05/03/2011 03:45,323.74
365745089090401,05/03/2011 03:46,323.74
365745089090401,05/03/2011 03:47,323.75
365745089090401,05/03/2011 03:48,323.76
365745089090401,05/03/2011 03:49,323.76
365745089090401,05/03/2011 03:50,323.77
365745089090401,05/03/2011 03:51,323.77
365745089090401,05/03/2011 03:52,323.78
365745089090401,05/03/2011 03:53,323.78
365745089090401,05/03/2011 03:54,323.79
365745089090401,05/03/2011 03:55,323.79
365745089090401,05/03/2011 03:56,323.81
365745089090401,05/03/2011 03:57,323.81
365745089090401,05/03/2011 03:58,323.8
365745089090401,05/03/2011 03:59,323.81
365745089090401,05/03/2011 04:00,323.82
365745089090401,05/03/2011 04:01,323.83
365745089090401,05/03/2011 04:02,323.82
365745089090401,05/03/2011 04:03,323.84
365745089090401,05/03/2011 04:04,323.85
365745089090401,05/03/2011 04:05,323.85
365745089090401,05/03/2011 04:06,323.86
365745089090401,05/03/2011 04:07,323.86
365745089090401,05/03/2011 04:08,323.86
365745089090401,05/03/2011 04:09,323.87
365745089090401,05/03/2011 04:10,323.88
365745089090401,05/03/2011 04:11,323.88
365745089090401,05/03/2011 04:12,323.88
365745089090401,05/03/2011 04:13,323.88
365745089090401,05/03/2011 04:14,323.9
365745089090401,05/03/2011 04:15,323.9
365745089090401,05/03/2011 04:16,323.91
365745089090401,05/03/2011 04:17,323.92
365745089090401,05/03/2011 04:18,323.92
365745089090401,05/03/2011 04:19,323.93
365745089090401,05/03/2011 04:20,323.92
365745089090401,05/03/2011 04:21,323.92
365745089090401,05/03/2011 04:22,323.92
365745089090401,05/03/2011 04:23,323.93
365745089090401,05/03/2011 04:24,323.94
365745089090401,05/03/2011 04:25,323.94
365745089090401,05/03/2011 04:26,323.94
365745089090401,05/03/2011 04:27,323.95
365745089090401,05/03/2011 04:28,323.96
365745089090401,05/03/2011 04:29,323.96
365745089090401,05/03/2011 04:30,323.98
365745089090401,05/03/2011 04:31,323.97
365745089090401,05/03/2011 04:32,323.98
365745089090401,05/03/2011 04:33,323.99
365745089090401,05/03/2011 04:34,323.98
365745089090401,05/03/2011 04:35,323.99
365745089090401,05/03/2011 04:36,323.99
365745089090401,05/03/2011 04:37,323.99
365745089090401,05/03/2011 04:38,324
365745089090401,05/03/2011 04:39,324
365745089090401,05/03/2011 04:40,324.02
365745089090401,05/03/2011 04:41,324.02
365745089090401,05/03/2011 04:42,324.03
365745089090401,05/03/2011 04:43,324.02
365745089090401,05/03/2011 04:44,324.02
365745089090401,05/03/2011 04:45,324.04
365745089090401,05/03/2011 04:46,324.04
365745089090401,05/03/2011 04:47,324.04
365745089090401,05/03/2011 04:48,324.05
365745089090401,05/03/2011 04:49,324.04
365745089090401,05/03/2011 04:50,324.05
365745089090401,05/03/2011 04:51,324.05
365745089090401,05/03/2011 04:52,324.06
365745089090401,05/03/2011 04:53,324.05
365745089090401,05/03/2011 04:54,324.06
365745089090401,05/03/2011 04:55,324.06
365745089090401,05/03/2011 04:56,324.07
365745089090401,05/03/2011 04:57,324.07
365745089090401,05/03/2011 04:58,324.08
365745089090401,05/03/2011 04:59,324.07
365745089090401,05/03/2011 05:00,324.07
365745089090401,05/03/2011 05:01,324.07
365745089090401,05/03/2011 05:02,324.08
365745089090401,05/03/2011 05:03,324.08
365745089090401,05/03/2011 05:04,324.08
365745089090401,05/03/2011 05:05,324.08
365745089090401,05/03/2011 05:06,324.09
365745089090401,05/03/2011 05:07,324.09
365745089090401,05/03/2011 05:08,324.09
365745089090401,05/03/2011 05:09,324.1
365745089090401,05/03/2011 05:10,324.1
365745089090401,05/03/2011 05:11,324.1
365745089090401,05/03/2011 05:12,324.12
365745089090401,05/03/2011 05:13,324.1
365745089090401,05/03/2011 05:14,324.12
365745089090401,05/03/2011 05:15,324.12
365745089090401,05/03/2011 05:16,324.1
365745089090401,05/03/2011 05:17,324.12
365745089090401,05/03/2011 05:18,324.13
365745089090401,05/03/2011 05:19,324.12
365745089090401,05/03/2011 05:20,324.12
365745089090401,05/03/2011 05:21,324.12
365745089090401,05/03/2011 05:22,324.11
365745089090401,05/03/2011 05:23,324.12
365745089090401,05/03/2011 05:24,324.13
365745089090401,05/03/2011 05:25,324.13
365745089090401,05/03/2011 05:26,324.13
365745089090401,05/03/2011 05:27,324.14
365745089090401,05/03/2011 05:28,324.14
365745089090401,05/03/2011 05:29,324.12
365745089090401,05/03/2011 05:30,324.14
365745089090401,05/03/2011 05:31,324.14
365745089090401,05/03/2011 05:32,324.14
365745089090401,05/03/2011 05:33,324.14
365745089090401,05/03/2011 05:34,324.14
365745089090401,05/03/2011 05:35,324.14
365745089090401,05/03/2011 05:36,324.15
365745089090401,05/03/2011 05:37,324.14
365745089090401,05/03/2011 05:38,324.15
365745089090401,05/03/2011 05:39,324.14
365745089090401,05/03/2011 05:40,324.15
365745089090401,05/03/2011 05:41,324.15
365745089090401,05/03/2011 05:42,324.16
365745089090401,05/03/2011 05:43,324.15
365745089090401,05/03/2011 05:44,324.15
365745089090401,05/03/2011 05:45,324.16
365745089090401,05/03/2011 05:46,324.16
365745089090401,05/03/2011 05:47,324.17
365745089090401,05/03/2011 05:48,324.16
365745089090401,05/03/2011 05:49,324.17
365745089090401,05/03/2011 05:50,324.16
365745089090401,05/03/2011 05:51,324.18
365745089090401,05/03/2011 05:52,324.17
365745089090401,05/03/2011 05:53,324.16
365745089090401,05/03/2011 05:54,324.17
365745089090401,05/03/2011 05:55,324.17
365745089090401,05/03/2011 05:56,324.17
365745089090401,05/03/2011 05:57,324.17
365745089090401,05/03/2011 05:58,324.18
365745089090401,05/03/2011 05:59,324.18
365745089090401,05/03/2011 06:00,324.18
365745089090401,05/03/2011 06:01,324.18
365745089090401,05/03/2011 06:02,324.18
365745089090401,05/03/2011 06:03,324.18
365745089090401,05/03/2011 06:04,324.18
365745089090401,05/03/2011 06:05,324.19
365745089090401,05/03/2011 06:06,324.2
365745089090401,05/03/2011 06:07,324.2
365745089090401,05/03/2011 06:08,324.2
365745089090401,05/03/2011 06:09,324.21
365745089090401,05/03/2011 06:10,324.19
365745089090401,05/03/2011 06:11,324.19
365745089090401,05/03/2011 06:12,324.2
365745089090401,05/03/2011 06:13,324.2
365745089090401,05/03/2011 06:14,324.2
365745089090401,05/03/2011 06:15,324.19
365745089090401,05/03/2011 06:16,324.2
365745089090401,05/03/2011 06:17,324.21
365745089090401,05/03/2011 06:18,324.21
365745089090401,05/03/2011 06:19,324.21
365745089090401,05/03/2011 06:20,324.21
365745089090401,05/03/2011 06:21,324.21
365745089090401,05/03/2011 06:22,324.22
365745089090401,05/03/2011 06:23,324.21
365745089090401,05/03/2011 06:24,324.22
365745089090401,05/03/2011 06:25,324.22
365745089090401,05/03/2011 06:26,324.21
365745089090401,05/03/2011 06:27,324.2
365745089090401,05/03/2011 06:28,324.21
365745089090401,05/03/2011 06:29,324.22
365745089090401,05/03/2011 06:30,324.21
365745089090401,05/03/2011 06:31,324.22
365745089090401,05/03/2011 06:32,324.22
365745089090401,05/03/2011 06:33,324.22
365745089090401,05/03/2011 06:34,324.21
365745089090401,05/03/2011 06:35,324.21
365745089090401,05/03/2011 06:36,324.21
365745089090401,05/03/2011 06:37,324.23
365745089090401,05/03/2011 06:38,324.22
365745089090401,05/03/2011 06:39,324.22
365745089090401,05/03/2011 06:40,324.22
365745089090401,05/03/2011 06:41,324.22
365745089090401,05/03/2011 06:42,324.21
365745089090401,05/03/2011 06:43,324.22
365745089090401,05/03/2011 06:44,324.22
365745089090401,05/03/2011 06:45,324.22
365745089090401,05/03/2011 06:46,324.22
365745089090401,05/03/2011 06:47,324.22
365745089090401,05/03/2011 06:48,324.22
365745089090401,05/03/2011 06:49,324.22
365745089090401,05/03/2011 06:50,324.22
365745089090401,05/03/2011 06:51,324.22
365745089090401,05/03/2011 06:52,324.23
365745089090401,05/03/2011 06:53,324.23
365745089090401,05/03/2011 06:54,324.22
365745089090401,05/03/2011 06:55,324.24
365745089090401,05/03/2011 06:56,324.22
365745089090401,05/03/2011 06:57,324.22
365745089090401,05/03/2011 06:58,324.22
365745089090401,05/03/2011 06:59,324.22
365745089090401,05/03/2011 07:00,324.21
365745089090401,05/03/2011 07:01,324.22
365745089090401,05/03/2011 07:02,324.22
365745089090401,05/03/2011 07:03,324.23
365745089090401,05/03/2011 07:04,324.21
365745089090401,05/03/2011 07:05,324.22
365745089090401,05/03/2011 07:06,324.22
365745089090401,05/03/2011 07:07,324.22
365745089090401,05/03/2011 07:08,324.22
365745089090401,05/03/2011 07:09,324.22
365745089090401,05/03/2011 07:10,324.22
365745089090401,05/03/2011 07:11,324.22
365745089090401,05/03/2011 07:12,324.22
365745089090401,05/03/2011 07:13,324.23
365745089090401,05/03/2011 07:14,324.23
365745089090401,05/03/2011 07:15,324.22
365745089090401,05/03/2011 07:16,324.22
365745089090401,05/03/2011 07:17,324.21
365745089090401,05/03/2011 07:18,324.21
365745089090401,05/03/2011 07:19,324.21
365745089090401,05/03/2011 07:20,324.21
365745089090401,05/03/2011 07:21,324.21
365745089090401,05/03/2011 07:22,324.23
365745089090401,05/03/2011 07:23,324.21
365745089090401,05/03/2011 07:24,324.21
365745089090401,05/03/2011 07:25,324.21
365745089090401,05/03/2011 07:26,324.22
365745089090401,05/03/2011 07:27,324.22
365745089090401,05/03/2011 07:28,324.21
365745089090401,05/03/2011 07:29,324.22
365745089090401,05/03/2011 07:30,324.22
365745089090401,05/03/2011 07:31,324.22
365745089090401,05/03/2011 07:32,324.22
365745089090401,05/03/2011 07:33,324.21
365745089090401,05/03/2011 07:34,324.22
365745089090401,05/03/2011 07:35,324.21
365745089090401,05/03/2011 07:36,324.21
365745089090401,05/03/2011 07:37,324.22
365745089090401,05/03/2011 07:38,324.24
365745089090401,05/03/2011 07:39,324.22
365745089090401,05/03/2011 07:40,324.21
365745089090401,05/03/2011 07:41,324.22
365745089090401,05/03/2011 07:42,324.22
365745089090401,05/03/2011 07:43,324.22
365745089090401,05/03/2011 07:44,324.22
365745089090401,05/03/2011 07:45,324.21
365745089090401,05/03/2011 07:46,324.21
365745089090401,05/03/2011 07:47,324.23
365745089090401,05/03/2011 07:48,324.23
365745089090401,05/03/2011 07:49,324.21
365745089090401,05/03/2011 07:50,324.21
365745089090401,05/03/2011 07:51,324.22
365745089090401,05/03/2011 07:52,324.22
365745089090401,05/03/2011 07:53,324.23
365745089090401,05/03/2011 07:54,324.23
365745089090401,05/03/2011 07:55,324.21
365745089090401,05/03/2011 07:56,324.22
365745089090401,05/03/2011 07:57,324.2
365745089090401,05/03/2011 07:58,324.22
365745089090401,05/03/2011 07:59,324.22
365745089090401,05/03/2011 08:00,324.22
365745089090401,05/03/2011 08:01,324.21
365745089090401,05/03/2011 08:02,324.21
365745089090401,05/03/2011 08:03,324.21
365745089090401,05/03/2011 08:04,324.22
365745089090401,05/03/2011 08:05,324.22
365745089090401,05/03/2011 08:06,324.21
365745089090401,05/03/2011 08:07,324.21
365745089090401,05/03/2011 08:08,324.21
365745089090401,05/03/2011 08:09,324.21
365745089090401,05/03/2011 08:10,324.21
365745089090401,05/03/2011 08:11,324.2
365745089090401,05/03/2011 08:12,324.22
365745089090401,05/03/2011 08:13,324.21
365745089090401,05/03/2011 08:14,324.21
365745089090401,05/03/2011 08:15,324.21
365745089090401,05/03/2011 08:16,324.21
365745089090401,05/03/2011 08:17,324.2
365745089090401,05/03/2011 08:18,324.2
365745089090401,05/03/2011 08:19,324.2
365745089090401,05/03/2011 08:20,324.2
365745089090401,05/03/2011 08:21,324.21
365745089090401,05/03/2011 08:22,324.2
365745089090401,05/03/2011 08:23,324.21
365745089090401,05/03/2011 08:24,324.21
365745089090401,05/03/2011 08:25,324.21
365745089090401,05/03/2011 08:26,324.21
365745089090401,05/03/2011 08:27,324.21
365745089090401,05/03/2011 08:28,324.21
365745089090401,05/03/2011 08:29,324.21
365745089090401,05/03/2011 08:30,324.21
365745089090401,05/03/2011 08:31,324.21